Regional Weather Roundup
Issued by NWS Austin/San Antonio, TX

Current Version | Previous Version | Text Only | Print | Product List | Glossary On
Versions: 1 2 3 4 5 6 7 8 9 10 11 12 13 14 15 16 17 18 19 20 21 22 23 24 25 26 27 28 29 30 31 32 33 34 35 36 37 38 39 40 41 42 43 44 45 46 47 48 49 50
000
ASUS44 KEWX 051902
RWREWX
SOUTH TEXAS REGIONAL WEATHER ROUNDUP
NATIONAL WEATHER SERVICE AUSTIN/SAN ANTONIO TX
200 PM CDT SUN JUL 05 2020

NOTE: "FAIR" INDICATED FEW OR NO CLOUDS BELOW 12,000 FEET WITH NO
SIGNIFICANT WEATHER AND/OR OBSTRUCTIONS TO VISIBILITY.

* - THESE STATIONS ARE NOT NWS OR FAA STATIONS...AND ARE NOT SUBJECT
    TO NWS AND FAA QUALITY CONTROL.

TXZ171-172-183>190-052000-
TEXAS HILL COUNTRY AND EDWARDS PLATEAU

CITY           SKY/WX    TMP DP  RH WIND       PRES   REMARKS
JUNCTION       SUNNY    103  63  27 MISG      29.90F HX 105
*LLANO         SUNNY     99  63  30 NW3       29.91F HX 100
BURNET         SUNNY     96  59  29 SW3       29.91F HX  95
*HORSESHOE BAY SUNNY    100  61  27 CALM      29.88F HX 101
*LAGO VISTA    MOSUNNY   96  65  36 SE5       29.91F HX  99
*KERRVILLE     SUNNY     97  61  30 S9        29.92F HX  97
*FREDERICKSBRG SUNNY     94  59  31 S5        29.93F HX  93
*ROCKSPRINGS   SUNNY     97  61  30 SE15      29.99F HX  97
*BOERNE        MOSUNNY   91  63  38 S8        29.92F HX  92
*CASTROVILLE   MOSUNNY   99  62  29 MISG      29.89F HX  99
HONDO          SUNNY     97  65  34 S5G16     29.88F HX  99
*UVALDE          N/A     97  66  35 SE8       29.88F HX 100
DEL RIO        SUNNY    103  63  27 SE14      29.83F HX 105
*LAUGHLIN AFB  MOSUNNY  100  63  28 SE13      29.85F HX 102
*SPOFFORD      NOT AVBL
*EAGLE PASS    NOT AVBL
CARRIZO SPRGS  SUNNY    102  63  27 S10G16    29.82F HX 104
$$

TXZ173-191>194-202-209-217>225-228-052000-
CENTRAL AND SOUTH CENTRAL TEXAS

CITY           SKY/WX    TMP DP  RH WIND       PRES   REMARKS
GEORGETOWN     MOSUNNY   96  66  37 SE10      29.89F HX  99
*TAYLOR        MOSUNNY   95  71  45 SE9G18    29.88F HX 101
AUSTIN/BERGSTM PTSUNNY   95  71  45 S7        29.87F HX 102
AUSTIN/MABRY   MOSUNNY   98  69  38 VRB5      29.88F HX 104
*PFLUGERVILLE  MOSUNNY   91  68  46 SW6       29.89F HX  95
SAN MARCOS     MOSUNNY   96  69  41 S9        29.88F HX 102
NEW BRAUNFELS  MOSUNNY   98  64  32 SW9       29.86F HX 100
*RANDOLPH AFB  PTSUNNY   95  63  34 S7        29.87F HX  96
*SEGUIN        NOT AVBL
SAN ANTONIO    PTSUNNY   96  68  39 SE8       29.88F HX 101
STINSON FIELD  MOSUNNY   95  66  38 S9        29.85F HX  98
*KELLY FIELD   PTSUNNY   95  66  38 SE3       29.86F HX  99
*PLEASANTON    MOSUNNY   96  72  44 SE7       29.86F HX 104
*KENEDY        MOSUNNY   94  71  46 S12       29.87F HX 101
*LA GRANGE     CLOUDY    96  71  44 S5        29.86F HX 104
*GIDDINGS      CLOUDY    96  67  38 SW5       29.89F HX 100
*GONZALES      CLOUDY    95  71  44 S7        29.87F HX 102
$$

TXZ163>164-176>182-195>201-210>213-226-227-235-052000-
SOUTHEAST TEXAS

CITY           SKY/WX    TMP DP  RH WIND       PRES   REMARKS
COLLEGE STN    CLOUDY    88  73  61 S6        29.88F HX  95
*BRYAN         CLOUDY    87  76  68 S5        29.90F HX  98
*CALDWELL      CLOUDY    89  74  60 CALM      29.89F HX  98
*CROCKETT      NOT AVBL
*BRENHAM       CLOUDY    93  73  52 CALM      29.88F HX 102
HUNTSVILLE     MOSUNNY   89  71  55 SW6       29.89F HX  95
CONROE         MOSUNNY   90  76  63 SW5       29.90F HX 101
HOUSTON BUSH   PTSUNNY   93  73  52 S6        29.89F HX 102
HOUSTON HOBBY  PTSUNNY   92  73  53 SW7       29.89F HX 100
*HOUSTON SW AP PTSUNNY   89  76  64 W3        29.90F HX 100
PEARLAND       MOSUNNY   91  72  53 W7        29.90F HX  98
HOUSTON HOOKS  MOSUNNY   89  72  56 NW6       29.89F HX  96
ELLINGTON FLD  PTSUNNY   90  73  58 SW7       29.88F HX  98
SUGAR LAND     MOSUNNY   91  74  57 VRB3      29.89S HX 100
*HOUSTON EXEC  MOSUNNY   91  75  59 W6        29.90F HX 102
*CLEVELAND MUN MOSUNNY   91  71  52 W5        29.91F HX  97
*WHARTON       MOSUNNY   92  68  44 SW8G16    29.89F HX  96
*COLUMBUS      FAIR      90  73  57 SW8       29.90F HX  98
*EAGLE LAKE    CLOUDY    92  77  62 SW7       29.89  HX 105
$$

TXZ214>216-236>238-052000-
THE UPPER TEXAS COAST

CITY           SKY/WX    TMP DP  RH WIND       PRES   REMARKS
*ORANGE        MOSUNNY   90  75  60 W5        29.91F HX 100
PORT ARTHUR    MOSUNNY   90  74  59 SW7       29.89F HX  99
GALVESTON      MOSUNNY   91  77  63 SW16      29.90S HX 104
ANGLETON       MOSUNNY   90  75  61 SW9       29.89F HX 100
*BAY CITY      MOSUNNY   91  77  63 S12G20    29.89F HX 104
PALACIOS       MOSUNNY   89  76  65 S14       29.88F HX 100
$$

TXZ229>234-239>247-052000-
TEXAS COASTAL BEND AND RIO GRANDE PLAINS

CITY           SKY/WX    TMP DP  RH WIND       PRES   REMARKS
VICTORIA       MOSUNNY   94  73  50 MISG      29.87F HX 103
*BEEVILLE      MOSUNNY   94  79  60 S8        29.85F HX 111
ROCKPORT       SUNNY     90  76  63 S15G21    29.86F HX 101
*PORT ARANSAS  MOSUNNY   86  78  75 S12       29.89F HX  98
*PORT LAVACA   MOSUNNY   93  79  63 S13G18    29.88F HX 110
*INGLESIDE     SUNNY     91  79  67 S14G20    29.86F HX 108
CORPUS CHRISTI MOSUNNY   93  78  61 S8        29.85F HX 108
CORPUS NAS     NOT AVBL
*ROBSTOWN      SUNNY     96  74  48 S9        29.85F HX 107
ALICE          SUNNY     97  72  44 S9G16     29.83F HX 105
KINGSVILLE NAS NOT AVBL
COTULLA        SUNNY    100  68  35 VRB6      29.83F HX 105
LAREDO         SUNNY    101  67  32 S13       29.83F HX 106
$$

TXZ248>255-052000-
DEEP SOUTH TEXAS

CITY           SKY/WX    TMP DP  RH WIND       PRES   REMARKS
BROWNSVILLE    SUNNY     94  73  50 S17G29    29.86F HX 103
PORT ISABEL    SUNNY     95  71  45 S15G22    29.85F HX 102
HARLINGEN      SUNNY     97  70  41 SE20      29.84F HX 103
*HEBBRONVILLE  SUNNY     97  63  32 S10G16    29.86F HX  98
MCALLEN        SUNNY     98  67  36 SE16      29.84F HX 102
*WESLACO       SUNNY     97  67  37 S13G20    29.84F HX 101
FALFURRIAS     NOT AVBL
EDINBURG       SUNNY     96  62  32 S13       29.85F HX  97
*ZAPATA        SUNNY    101  66  32 SE9G16    29.85F HX 105
$$

TXZ213>215-236>238-242>244-246-247-251-254-255-052000-
CMAN STATIONS

STATION/POSITION TIME  TEMP    WIND        PRES    WAVE
                       AIR SEA DIR/SP/G            HT/PER
                 (UTC) (F)     (DEG/KT/KT) (MB)    (FT/S)
SABINE PASS      1818   89 87  230/  5/ 11 1014.6
NORTH JETTY/GLS  1830   87 84  210/ 18/ 19 1011.4
EAGLE POINT      1830   89 87  250/  7/ 12 1012.1
MORGANS POINT    1830   88 87  260/  7/ 10 1012.4
PORT O`CONNOR    1830   85 84  210/ 13/ 16 1011.7
PORT ARANSAS     1800   81 84  170/ 14/ 15 1012.2
MALAQUITE BEACH  1830   82     140/ 14/ 15   N/A
BAFFIN BAY       1830   85 90  120/ 15/ 18 1011.6
PORT ISABEL      1830   93 81  170/ 15/ 21 1013.3
$$




USA.gov is the U.S. government's official web portal to all federal, state and local government web resources and services.